TimeMDT,TemperatureF,Dew PointF,Humidity,Sea Level PressureIn,VisibilityMPH,Wind Direction,Wind SpeedMPH,Gust SpeedMPH,PrecipitationIn,Events,Conditions,WindDirDegrees,DateUTC
12:53 AM,34.0,32.0,92,30.45,10.0,Calm,Calm,-,N/A,,Clear,0,2012-10-05 06:53:00
1:53 AM,32.0,30.2,93,30.39,10.0,Calm,Calm,-,N/A,,Partly Cloudy,0,2012-10-05 07:53:00
2:39 AM,28.4,28.4,100,30.39,1.8,Calm,Calm,-,N/A,,Scattered Clouds,0,2012-10-05 08:39:00
2:44 AM,28.4,26.6,93,30.39,0.8,SSE,3.5,-,N/A,,Mostly Cloudy,150,2012-10-05 08:44:00
2:53 AM,28.0,27.0,96,30.46,0.2,Calm,Calm,-,N/A,Fog,Light Freezing Fog,0,2012-10-05 08:53:00
3:08 AM,30.2,28.4,93,30.38,0.8,Calm,Calm,-,N/A,,Overcast,0,2012-10-05 09:08:00
3:12 AM,30.2,28.4,93,30.38,1.5,Calm,Calm,-,N/A,,Overcast,0,2012-10-05 09:12:00
3:14 AM,30.2,28.4,93,30.38,4.0,SSE,3.5,-,N/A,,Overcast,160,2012-10-05 09:14:00
3:53 AM,28.9,27.0,92,30.45,10.0,SW,3.5,-,N/A,,Scattered Clouds,220,2012-10-05 09:53:00
4:53 AM,30.0,28.0,92,30.45,10.0,Calm,Calm,-,N/A,,Overcast,0,2012-10-05 10:53:00
5:04 AM,28.4,28.4,100,30.39,10.0,Calm,Calm,-,N/A,,Overcast,0,2012-10-05 11:04:00
5:31 AM,30.2,28.4,93,30.39,10.0,Calm,Calm,-,N/A,,Overcast,0,2012-10-05 11:31:00
5:41 AM,30.2,30.2,100,30.39,10.0,Calm,Calm,-,N/A,,Overcast,0,2012-10-05 11:41:00
5:53 AM,30.9,30.0,96,30.45,10.0,Calm,Calm,-,N/A,,Overcast,0,2012-10-05 11:53:00
6:32 AM,30.2,30.2,100,30.39,9.0,Calm,Calm,-,N/A,,Overcast,0,2012-10-05 12:32:00
6:41 AM,32.0,30.2,93,30.39,9.0,Calm,Calm,-,N/A,,Overcast,0,2012-10-05 12:41:00
6:53 AM,32.0,30.9,96,30.46,10.0,WNW,3.5,-,N/A,,Overcast,300,2012-10-05 12:53:00
7:32 AM,32.0,30.2,93,30.41,9.0,West,3.5,-,N/A,,Overcast,270,2012-10-05 13:32:00
7:53 AM,33.1,32.0,96,30.48,10.0,WSW,4.6,-,N/A,,Overcast,250,2012-10-05 13:53:00
8:30 AM,33.8,32.0,93,30.42,8.0,Calm,Calm,-,N/A,,Overcast,0,2012-10-05 14:30:00
8:53 AM,33.1,30.9,92,30.50,9.0,Calm,Calm,-,N/A,,Mostly Cloudy,0,2012-10-05 14:53:00
9:16 AM,33.8,32.0,93,30.43,10.0,Calm,Calm,-,N/A,,Mostly Cloudy,0,2012-10-05 15:16:00
9:53 AM,35.1,32.0,89,30.51,10.0,Calm,Calm,-,N/A,,Mostly Cloudy,0,2012-10-05 15:53:00
10:09 AM,35.6,32.0,87,30.44,10.0,NNE,3.5,-,N/A,,Scattered Clouds,30,2012-10-05 16:09:00
10:27 AM,35.6,32.0,87,30.44,10.0,NE,3.5,-,N/A,,Mostly Cloudy,50,2012-10-05 16:27:00
10:39 AM,37.4,33.8,87,30.44,10.0,Calm,Calm,-,N/A,,Overcast,0,2012-10-05 16:39:00
10:53 AM,36.0,33.1,89,30.52,10.0,Calm,Calm,-,N/A,,Overcast,0,2012-10-05 16:53:00
11:43 AM,39.2,33.8,81,30.45,10.0,Calm,Calm,-,N/A,,Scattered Clouds,0,2012-10-05 17:43:00
11:53 AM,39.9,32.0,73,30.52,10.0,NE,3.5,-,N/A,,Scattered Clouds,50,2012-10-05 17:53:00
12:53 PM,42.1,28.0,58,30.51,10.0,Calm,Calm,-,N/A,,Scattered Clouds,0,2012-10-05 18:53:00
1:53 PM,44.1,27.0,51,30.49,10.0,Calm,Calm,-,N/A,,Clear,0,2012-10-05 19:53:00
2:53 PM,45.0,26.1,48,30.48,10.0,Calm,Calm,-,N/A,,Mostly Cloudy,0,2012-10-05 20:53:00
3:53 PM,45.0,23.0,42,30.48,10.0,Calm,Calm,-,N/A,,Scattered Clouds,0,2012-10-05 21:53:00
4:53 PM,43.0,30.0,60,30.48,10.0,NNE,17.3,20.7,N/A,,Overcast,20,2012-10-05 22:53:00
5:53 PM,42.1,28.0,58,30.49,10.0,ENE,8.1,-,N/A,,Mostly Cloudy,70,2012-10-05 23:53:00
6:53 PM,37.0,32.0,82,30.51,10.0,East,11.5,-,N/A,,Clear,80,2012-10-06 00:53:00
7:53 PM,34.0,30.9,89,30.51,10.0,East,6.9,-,N/A,,Clear,90,2012-10-06 01:53:00
8:53 PM,32.0,28.9,88,30.51,10.0,East,4.6,-,N/A,,Clear,90,2012-10-06 02:53:00
9:53 PM,32.0,28.0,85,30.49,10.0,Calm,Calm,-,N/A,,Clear,0,2012-10-06 03:53:00
10:53 PM,30.0,26.1,85,30.49,10.0,SSW,3.5,-,N/A,,Clear,200,2012-10-06 04:53:00
11:53 PM,30.0,26.1,85,30.48,10.0,Calm,Calm,-,N/A,,Clear,0,2012-10-06 05:53:00